Weather History for Warrenton, VA

Change the Weather History Date:

Monday, November 19, 2012

  Actual Average (KHEF) Record (KHEF)
Temperature  
Mean Temperature 45 °F -  
Max Temperature 55 °F 54 °F 71 °F (2001)
Min Temperature 35 °F 30 °F 19 °F (1997)
Degree Days  
Heating Degree Days 20    
Moisture  
Dew Point 42 °F    
Average Humidity 84    
Maximum Humidity 100    
Minimum Humidity 71    
Precipitation  
Precipitation 0.00 in - - ()
Sea Level Pressure  
Sea Level Pressure 30.36 in    
Wind  
Wind Speed 6 mph (NNE)    
Max Wind Speed 13 mph    
Max Gust Speed 16 mph    
Visibility 10 miles    
Events      
Averages and records for this station are not official NWS values.
T = Trace of Precipitation, MM = Missing Value Source: NWS Daily Summary

Daily Weather History Graph

Daily Weather History Graph

Search for Another Location

Airport:

Trip Planner

Search our weather history database for the weather conditions in past years. The results will help you decide how hot, cold, wet, or windy it might be!

Date:

Astronomy

Nov. 19, 2012 Rise Set
Actual Time 6:57 AM EST 4:54 PM EST
Civil Twilight 6:29 AM EST 5:23 PM EST
Nautical Twilight 5:56 AM EST 5:55 PM EST
Astronomical Twilight 5:25 AM EST 6:27 PM EST
Moon 12:00 PM EST (11/19) 11:17 PM EST (11/19)
Length of Visible Light 10h 54m
Length of Day
9h 57m
Waxing Crescent, 40% of the Moon is Illuminated
Nov 19
Waxing Crescent
Nov 20
First Quarter
Nov 28
Full
Dec 6
Last Quarter
Dec 13
New

Hourly Weather History & Observations

Time (EST) Temp. Windchill Dew Point Humidity Pressure Visibility Wind Dir Wind Speed Gust Speed Precip Events Conditions
12:15 AM 48.6 °F - 43.2 °F 82% 30.49 in 10.0 mi NNE 5.8 mph - N/A   Overcast
12:35 AM 48.4 °F - 43.2 °F 82% 30.48 in 10.0 mi NNE 5.8 mph - N/A   Overcast
12:55 AM 48.2 °F - 43.0 °F 82% 30.47 in 10.0 mi NNE 6.9 mph - N/A   Overcast
1:15 AM 47.8 °F - 43.0 °F 83% 30.46 in 10.0 mi North 5.8 mph - N/A   Overcast
1:55 AM 47.5 °F - 42.8 °F 84% 30.46 in 10.0 mi NNE 6.9 mph - N/A   Overcast
2:15 AM 47.7 °F - 43.0 °F 84% 30.47 in 10.0 mi NNE 6.9 mph - N/A   Overcast
2:35 AM 47.5 °F - 43.0 °F 84% 30.47 in 10.0 mi NNE 5.8 mph - N/A   Overcast
2:55 AM 47.3 °F - 43.0 °F 85% 30.47 in 10.0 mi North 4.6 mph - N/A   Overcast
3:15 AM 47.5 °F - 43.0 °F 84% 30.46 in 10.0 mi NNE 5.8 mph - N/A   Overcast
3:35 AM 47.3 °F - 43.0 °F 85% 30.45 in 10.0 mi North 5.8 mph - N/A   Overcast
3:55 AM 47.3 °F - 42.8 °F 84% 30.44 in 10.0 mi North 6.9 mph - N/A   Overcast
4:15 AM 47.3 °F - 42.8 °F 84% 30.44 in 10.0 mi North 5.8 mph - N/A   Overcast
4:35 AM 46.9 °F - 42.8 °F 86% 30.44 in 10.0 mi North 8.1 mph - N/A   Overcast
4:55 AM 46.9 °F - 42.8 °F 86% 30.44 in 10.0 mi North 5.8 mph - N/A   Overcast
5:15 AM 46.9 °F - 42.4 °F 84% 30.44 in 10.0 mi North 5.8 mph - N/A   Overcast
5:35 AM 46.9 °F - 42.4 °F 84% 30.44 in 10.0 mi NNE 6.9 mph - N/A   Overcast
5:55 AM 46.9 °F - 42.4 °F 84% 30.44 in 10.0 mi North 6.9 mph - N/A   Overcast
6:15 AM 46.9 °F - 42.4 °F 84% 30.43 in 10.0 mi NNE 6.9 mph - N/A   Overcast
6:35 AM 46.9 °F - 42.4 °F 84% 30.43 in 10.0 mi NNE 8.1 mph - N/A   Overcast
6:55 AM 46.8 °F - 42.4 °F 85% 30.44 in 10.0 mi NNE 6.9 mph - N/A   Overcast
7:15 AM 46.6 °F - 42.3 °F 85% 30.43 in 10.0 mi NNE 6.9 mph - N/A   Overcast
7:35 AM 46.6 °F - 42.4 °F 85% 30.43 in 10.0 mi NNE 8.1 mph - N/A   Overcast
7:55 AM 46.8 °F - 42.6 °F 85% 30.43 in 10.0 mi NNE 8.1 mph - N/A   Overcast
8:15 AM 46.8 °F - 42.6 °F 85% 30.43 in 10.0 mi NNE 8.1 mph - N/A   Overcast
8:35 AM 47.3 °F - 42.8 °F 84% 30.43 in 10.0 mi NNE 10.4 mph - N/A   Overcast
8:55 AM 47.7 °F - 43.0 °F 84% 30.44 in 10.0 mi NNE 6.9 mph - N/A   Overcast
9:15 AM 48.6 °F - 43.5 °F 83% 30.43 in 10.0 mi NNE 9.2 mph - N/A   Overcast
9:55 AM 49.3 °F - 43.7 °F 81% 30.42 in 10.0 mi NNE 10.4 mph - N/A   Overcast
10:15 AM 50.0 °F - 44.2 °F 81% 30.42 in 10.0 mi NNE 9.2 mph - N/A   Overcast
10:35 AM 50.2 °F - 44.4 °F 81% 30.42 in 10.0 mi North 9.2 mph - N/A   Overcast
10:55 AM 50.2 °F - 44.2 °F 80% 30.41 in 10.0 mi North 9.2 mph - N/A   Overcast
11:15 AM 51.1 °F - 44.8 °F 79% 30.40 in 10.0 mi NNE 8.1 mph - N/A   Overcast
11:35 AM 51.4 °F - 44.8 °F 78% 30.38 in 10.0 mi North 12.7 mph 16.1 mph N/A   Overcast
11:55 AM 52.0 °F - 44.6 °F 76% 30.38 in 10.0 mi North 11.5 mph 16.1 mph N/A   Overcast
12:15 PM 52.7 °F - 44.6 °F 74% 30.36 in 10.0 mi NNE 10.4 mph 16.1 mph N/A   Overcast
12:35 PM 53.2 °F - 44.8 °F 73% 30.35 in 10.0 mi NNE 6.9 mph - N/A   Overcast
12:55 PM 53.6 °F - 44.8 °F 72% 30.33 in 10.0 mi NNE 6.9 mph - N/A   Overcast
1:15 PM 54.1 °F - 45.0 °F 71% 30.33 in 10.0 mi NE 8.1 mph - N/A   Overcast
1:35 PM 54.5 °F - 45.3 °F 71% 30.32 in 10.0 mi North 4.6 mph - N/A   Overcast
1:55 PM 54.7 °F - 45.5 °F 71% 30.31 in 10.0 mi NNE 6.9 mph - N/A   Overcast
2:15 PM 54.9 °F - 45.7 °F 71% 30.31 in 10.0 mi NE 5.8 mph - N/A   Overcast
2:35 PM 54.9 °F - 45.7 °F 71% 30.31 in 10.0 mi NNE 5.8 mph - N/A   Overcast
2:55 PM 54.9 °F - 45.7 °F 71% 30.31 in 10.0 mi NE 6.9 mph - N/A   Overcast
3:15 PM 55.4 °F - 46.0 °F 71% 30.31 in 10.0 mi North 6.9 mph - N/A   Overcast
3:35 PM 54.7 °F - 45.5 °F 71% 30.30 in 10.0 mi North 6.9 mph - N/A   Overcast
3:55 PM 54.1 °F - 45.3 °F 72% 30.30 in 10.0 mi North 8.1 mph - N/A   Overcast
4:15 PM 53.6 °F - 44.8 °F 72% 30.29 in 10.0 mi North 6.9 mph - N/A   Overcast
4:35 PM 51.3 °F - 44.6 °F 78% 30.29 in 10.0 mi North 5.8 mph - N/A   Mostly Cloudy
4:55 PM 50.5 °F - 43.7 °F 77% 30.29 in 10.0 mi NNE 3.5 mph - N/A   Scattered Clouds
5:15 PM 49.6 °F - 43.3 °F 79% 30.30 in 10.0 mi North 3.5 mph - N/A   Scattered Clouds
5:35 PM 44.1 °F 41.5 °F 41.2 °F 90% 30.29 in 10.0 mi North 4.6 mph - N/A   Mostly Cloudy
5:55 PM 47.1 °F - 42.3 °F 83% 30.29 in 10.0 mi North 6.9 mph - N/A   Scattered Clouds
6:15 PM 47.3 °F - 42.3 °F 83% 30.29 in 10.0 mi North 3.5 mph - N/A   Clear
6:35 PM 46.4 °F 45.2 °F 41.9 °F 84% 30.29 in 10.0 mi North 3.5 mph - N/A   Clear
6:55 PM 40.3 °F - 39.4 °F 97% 30.29 in 10.0 mi Calm Calm - N/A   Clear
7:15 PM 42.4 °F - 40.5 °F 93% 30.29 in 10.0 mi Calm Calm - N/A   Clear
7:35 PM 40.1 °F - 38.8 °F 95% 30.28 in 10.0 mi Calm Calm - N/A   Clear
7:55 PM 39.6 °F 37.4 °F 38.3 °F 95% 30.27 in 10.0 mi NNE 3.5 mph - N/A   Clear
8:15 PM 37.6 °F 35.1 °F 37.6 °F 100% 30.27 in 10.0 mi NE 3.5 mph - N/A   Clear
8:35 PM 36.9 °F - 36.9 °F 100% 30.26 in 10.0 mi Calm Calm - N/A   Clear
8:55 PM 35.8 °F - 35.8 °F 100% 30.26 in 10.0 mi Calm Calm - N/A   Clear
9:15 PM 36.9 °F - 36.9 °F 100% 30.26 in 10.0 mi Calm Calm - N/A   Clear
9:35 PM 36.0 °F - 36.0 °F 100% 30.25 in 10.0 mi Calm Calm - N/A   Clear
9:55 PM 38.1 °F - 38.1 °F 100% 30.24 in 10.0 mi Calm Calm - N/A   Clear
10:15 PM 35.2 °F - 35.2 °F 100% 30.24 in 10.0 mi Calm Calm - N/A   Mostly Cloudy
10:35 PM 36.5 °F - 36.5 °F 100% 30.24 in 10.0 mi Calm Calm - N/A   Mostly Cloudy
10:55 PM 36.5 °F - 36.5 °F 100% 30.24 in 10.0 mi Calm Calm - N/A   Mostly Cloudy
11:15 PM 36.5 °F - 36.5 °F 100% 30.24 in 10.0 mi Calm Calm - N/A   Mostly Cloudy
11:35 PM 37.2 °F - 37.2 °F 100% 30.23 in 10.0 mi Calm Calm - N/A   Mostly Cloudy
11:55 PM 37.6 °F - 37.6 °F 100% 30.23 in 10.0 mi Calm Calm - N/A   Mostly Cloudy